Time,TemperatureF,DewpointF,PressureIn,WindDirection,WindDirectionDegrees,WindSpeedMPH,WindSpeedGustMPH,Humidity,HourlyPrecipIn,Conditions,Clouds,dailyrainin,SoftwareType,DateUTC
2015-08-29 00:03:00,71.2,54.2,29.57,WSW,247,0.0,0.0,55,0.00,,,0.00,LWC V2.10 B1500,2015-08-29 07:03:00,
2015-08-29 00:08:00,71.2,54.7,29.57,SW,225,0.0,0.0,56,0.00,,,0.00,LWC V2.10 B1500,2015-08-29 07:08:00,
2015-08-29 00:13:00,70.9,54.4,29.57,SW,225,0.0,0.0,56,0.00,,,0.00,LWC V2.10 B1500,2015-08-29 07:13:00,
2015-08-29 00:18:00,70.7,54.2,29.58,SW,225,0.0,0.0,56,0.00,,,0.00,LWC V2.10 B1500,2015-08-29 07:18:00,
2015-08-29 00:23:00,70.5,54.0,29.58,SW,225,0.0,0.0,56,0.00,,,0.00,LWC V2.10 B1500,2015-08-29 07:23:00,
2015-08-29 00:28:00,70.3,53.9,29.58,SW,225,0.0,0.0,56,0.00,,,0.00,LWC V2.10 B1500,2015-08-29 07:28:00,
2015-08-29 00:33:00,70.3,53.9,29.59,WSW,247,0.0,0.0,56,0.00,,,0.00,LWC V2.10 B1500,2015-08-29 07:33:00,
2015-08-29 00:38:00,70.2,53.7,29.59,SW,225,2.2,3.8,56,0.00,,,0.00,LWC V2.10 B1500,2015-08-29 07:38:00,
2015-08-29 00:43:00,70.3,53.9,29.59,SSE,157,4.7,4.7,56,0.00,,,0.00,LWC V2.10 B1500,2015-08-29 07:43:00,
2015-08-29 00:48:00,70.5,53.5,29.59,SE,135,2.5,12.7,55,0.00,,,0.00,LWC V2.10 B1500,2015-08-29 07:48:00,
2015-08-29 00:52:00,70.9,54.4,29.59,NNW,337,2.2,4.2,56,0.00,,,0.00,LWC V2.10 B1500,2015-08-29 07:52:00,
2015-08-29 00:57:00,71.1,54.0,29.59,SSW,202,4.7,4.7,55,0.00,,,0.00,LWC V2.10 B1500,2015-08-29 07:57:00,
2015-08-29 01:04:00,71.1,54.5,29.59,NNW,337,2.9,2.9,-999,0.00,,,0.00,LWC V2.10 B1500,2015-08-29 08:04:00,
2015-08-29 01:09:00,70.9,54.4,29.59,NW,315,5.8,6.5,56,0.00,,,0.00,LWC V2.10 B1500,2015-08-29 08:09:00,
2015-08-29 01:14:00,70.9,54.4,29.59,South,180,3.4,4.7,56,0.00,,,0.00,LWC V2.10 B1500,2015-08-29 08:14:00,
2015-08-29 01:19:00,70.9,54.9,29.59,ESE,112,2.5,5.6,57,0.00,,,0.00,LWC V2.10 B1500,2015-08-29 08:19:00,
2015-08-29 01:24:00,70.7,54.7,29.59,SSW,202,0.0,8.5,57,0.00,,,0.00,LWC V2.10 B1500,2015-08-29 08:24:00,
2015-08-29 01:29:00,70.5,54.5,29.59,SSE,157,1.6,5.4,57,0.00,,,0.00,LWC V2.10 B1500,2015-08-29 08:29:00,
2015-08-29 01:34:00,70.5,54.5,29.60,South,180,2.9,5.1,57,0.00,,,0.00,LWC V2.10 B1500,2015-08-29 08:34:00,
2015-08-29 01:39:00,70.5,54.5,29.60,SSW,202,2.7,5.1,57,0.00,,,0.00,LWC V2.10 B1500,2015-08-29 08:39:00,
2015-08-29 01:44:00,70.5,54.5,29.60,WSW,247,2.5,8.9,57,0.00,,,0.00,LWC V2.10 B1500,2015-08-29 08:44:00,
2015-08-29 01:49:00,70.5,54.5,29.60,SE,135,6.3,7.2,57,0.00,,,0.00,LWC V2.10 B1500,2015-08-29 08:49:00,
2015-08-29 01:54:00,70.3,54.9,29.60,SSE,157,8.1,8.5,58,0.00,,,0.00,LWC V2.10 B1500,2015-08-29 08:54:00,
2015-08-29 01:59:00,70.0,55.1,29.60,SW,225,0.0,2.9,59,0.00,,,0.00,LWC V2.10 B1500,2015-08-29 08:59:00,
2015-08-29 02:04:00,69.4,55.5,29.60,WSW,247,2.2,7.2,61,0.00,,,0.00,LWC V2.10 B1500,2015-08-29 09:04:00,
2015-08-29 02:09:00,68.7,55.2,29.60,SSW,202,0.0,2.5,62,0.00,,,0.00,LWC V2.10 B1500,2015-08-29 09:09:00,
2015-08-29 02:14:00,68.2,55.5,29.60,South,180,4.2,4.2,64,0.00,,,0.00,LWC V2.10 B1500,2015-08-29 09:14:00,
2015-08-29 02:19:00,67.3,55.0,29.60,ESE,112,3.4,5.6,64,0.00,,,0.00,LWC V2.10 B1500,2015-08-29 09:19:00,
2015-08-29 02:24:00,66.7,55.0,29.60,WSW,247,1.8,7.6,66,0.00,,,0.00,LWC V2.10 B1500,2015-08-29 09:24:00,
2015-08-29 02:29:00,66.4,54.6,29.60,South,180,0.0,2.5,66,0.00,,,0.00,LWC V2.10 B1500,2015-08-29 09:29:00,
2015-08-29 02:34:00,66.0,54.7,29.60,South,180,0.0,0.0,67,0.00,,,0.00,LWC V2.10 B1500,2015-08-29 09:34:00,
2015-08-29 02:39:00,65.8,55.0,29.61,SSW,202,0.0,4.5,68,0.00,,,0.00,LWC V2.10 B1500,2015-08-29 09:39:00,
2015-08-29 02:44:00,65.8,55.0,29.62,West,270,0.0,0.0,68,0.00,,,0.00,LWC V2.10 B1500,2015-08-29 09:44:00,
2015-08-29 02:49:00,65.5,55.0,29.61,SE,135,2.5,7.8,69,0.00,,,0.00,LWC V2.10 B1500,2015-08-29 09:49:00,
2015-08-29 02:54:00,65.1,55.1,29.62,SSW,202,0.0,3.8,70,0.00,,,0.00,LWC V2.10 B1500,2015-08-29 09:54:00,
2015-08-29 02:59:00,64.9,55.0,29.61,SSE,157,0.0,3.8,70,0.00,,,0.00,LWC V2.10 B1500,2015-08-29 09:59:00,
2015-08-29 03:04:00,64.6,54.8,29.62,SSW,202,2.2,5.6,70,0.00,,,0.00,LWC V2.10 B1500,2015-08-29 10:04:00,
2015-08-29 03:09:00,64.6,55.0,29.63,South,180,0.0,5.4,71,0.00,,,0.00,LWC V2.10 B1500,2015-08-29 10:09:00,
2015-08-29 03:14:00,64.2,55.0,29.63,SSE,157,2.5,2.7,72,0.00,,,0.00,LWC V2.10 B1500,2015-08-29 10:14:00,
2015-08-29 03:19:00,64.0,54.9,29.64,South,180,5.8,7.8,72,0.00,,,0.00,LWC V2.10 B1500,2015-08-29 10:19:00,
2015-08-29 03:24:00,64.0,55.2,29.64,SW,225,4.2,4.7,73,0.00,,,0.00,LWC V2.10 B1500,2015-08-29 10:24:00,
2015-08-29 03:29:00,63.7,54.9,29.65,South,180,0.0,4.2,73,0.00,,,0.00,LWC V2.10 B1500,2015-08-29 10:29:00,
2015-08-29 03:34:00,63.5,54.7,29.66,SE,135,0.0,6.3,73,0.00,,,0.00,LWC V2.10 B1500,2015-08-29 10:34:00,
2015-08-29 03:39:00,63.3,54.9,29.65,SE,135,0.0,0.0,74,0.00,,,0.00,LWC V2.10 B1500,2015-08-29 10:39:00,
2015-08-29 03:44:00,63.3,54.9,29.66,SW,225,0.0,0.0,74,0.00,,,0.00,LWC V2.10 B1500,2015-08-29 10:44:00,
2015-08-29 03:49:00,63.3,54.9,29.66,SE,135,0.0,0.0,74,0.00,,,0.00,LWC V2.10 B1500,2015-08-29 10:49:00,
2015-08-29 03:54:00,63.1,54.7,29.67,SSW,202,3.8,3.8,74,0.00,,,0.00,LWC V2.10 B1500,2015-08-29 10:54:00,
2015-08-29 03:59:00,63.1,54.7,29.67,SSE,157,0.0,0.0,74,0.00,,,0.00,LWC V2.10 B1500,2015-08-29 10:59:00,
2015-08-29 04:04:00,63.1,55.0,29.67,SSE,157,0.0,2.9,75,0.00,,,0.00,LWC V2.10 B1500,2015-08-29 11:04:00,
2015-08-29 04:09:00,63.1,55.0,29.67,SE,135,0.0,0.0,75,0.00,,,0.00,LWC V2.10 B1500,2015-08-29 11:09:00,
2015-08-29 04:14:00,63.0,55.2,29.67,SW,225,0.0,0.0,76,0.00,,,0.00,LWC V2.10 B1500,2015-08-29 11:14:00,
2015-08-29 04:19:00,63.0,55.2,29.67,SSE,157,0.0,4.7,76,0.00,,,0.00,LWC V2.10 B1500,2015-08-29 11:19:00,
2015-08-29 04:24:00,62.8,55.0,29.67,SSE,157,0.0,3.6,76,0.00,,,0.00,LWC V2.10 B1500,2015-08-29 11:24:00,
2015-08-29 04:29:00,62.8,55.0,29.67,SSE,157,0.0,6.5,76,0.00,,,0.00,LWC V2.10 B1500,2015-08-29 11:29:00,
2015-08-29 04:34:00,62.6,54.9,29.68,SSE,157,0.0,4.2,76,0.00,,,0.00,LWC V2.10 B1500,2015-08-29 11:34:00,
2015-08-29 04:39:00,62.4,54.7,29.68,SSW,202,0.0,0.0,76,0.00,,,0.00,LWC V2.10 B1500,2015-08-29 11:39:00,
2015-08-29 04:44:00,62.4,54.7,29.68,South,180,0.0,3.4,76,0.00,,,0.00,LWC V2.10 B1500,2015-08-29 11:44:00,
2015-08-29 04:49:00,62.4,54.7,29.68,WSW,247,0.0,0.0,76,0.00,,,0.00,LWC V2.10 B1500,2015-08-29 11:49:00,
2015-08-29 04:54:00,62.2,54.5,29.69,SSW,202,0.0,1.6,76,0.00,,,0.00,LWC V2.10 B1500,2015-08-29 11:54:00,
2015-08-29 04:59:00,62.1,54.4,29.69,SW,225,0.0,3.1,76,0.00,,,0.00,LWC V2.10 B1500,2015-08-29 11:59:00,
2015-08-29 05:04:00,61.9,54.2,29.68,WSW,247,2.9,3.4,76,0.00,,,0.00,LWC V2.10 B1500,2015-08-29 12:04:00,
2015-08-29 05:09:00,61.5,53.5,29.69,ESE,112,0.0,0.0,75,0.00,,,0.00,LWC V2.10 B1500,2015-08-29 12:09:00,
2015-08-29 05:14:00,61.5,53.5,29.69,SE,135,0.0,3.8,75,0.00,,,0.00,LWC V2.10 B1500,2015-08-29 12:14:00,
2015-08-29 05:19:00,61.3,53.4,29.70,South,180,2.0,4.2,75,0.00,,,0.00,LWC V2.10 B1500,2015-08-29 12:19:00,
2015-08-29 05:24:00,61.2,53.2,29.70,SSE,157,2.7,2.7,75,0.00,,,0.00,LWC V2.10 B1500,2015-08-29 12:24:00,
2015-08-29 05:29:00,61.0,53.0,29.71,SSE,157,0.0,3.4,75,0.00,,,0.00,LWC V2.10 B1500,2015-08-29 12:29:00,
2015-08-29 05:34:00,61.0,53.0,29.71,ESE,112,0.7,3.8,75,0.00,,,0.00,LWC V2.10 B1500,2015-08-29 12:34:00,
2015-08-29 05:39:00,61.0,53.0,29.71,SW,225,2.5,6.3,75,0.00,,,0.00,LWC V2.10 B1500,2015-08-29 12:39:00,
2015-08-29 05:44:00,60.6,52.7,29.72,SE,135,0.0,6.0,75,0.00,,,0.00,LWC V2.10 B1500,2015-08-29 12:44:00,
2015-08-29 05:49:00,60.6,52.7,29.72,WSW,247,2.0,7.2,75,0.00,,,0.00,LWC V2.10 B1500,2015-08-29 12:49:00,
2015-08-29 05:54:00,60.6,52.3,29.72,WSW,247,0.0,10.7,74,0.00,,,0.00,LWC V2.10 B1500,2015-08-29 12:54:00,
2015-08-29 05:59:00,60.6,52.3,29.72,SW,225,0.0,10.5,74,0.00,,,0.00,LWC V2.10 B1500,2015-08-29 12:59:00,
2015-08-29 06:04:00,60.4,52.2,29.72,South,180,0.0,7.2,74,0.00,,,0.00,LWC V2.10 B1500,2015-08-29 13:04:00,
2015-08-29 06:09:00,60.4,52.2,29.73,SE,135,0.0,6.7,74,0.00,,,0.00,LWC V2.10 B1500,2015-08-29 13:09:00,
2015-08-29 06:14:00,60.4,51.8,29.73,WSW,247,1.6,5.1,73,0.00,,,0.00,LWC V2.10 B1500,2015-08-29 13:14:00,
2015-08-29 06:19:00,60.1,51.4,29.73,WSW,247,6.7,6.7,73,0.00,,,0.00,LWC V2.10 B1500,2015-08-29 13:19:00,
2015-08-29 06:24:00,60.1,51.4,29.74,SW,225,0.0,0.0,73,0.00,,,0.00,LWC V2.10 B1500,2015-08-29 13:24:00,
2015-08-29 06:29:00,59.9,51.3,29.74,SW,225,0.0,1.8,73,0.00,,,0.00,LWC V2.10 B1500,2015-08-29 13:29:00,
2015-08-29 06:34:00,59.9,51.6,29.74,SSW,202,0.0,0.0,74,0.00,,,0.00,LWC V2.10 B1500,2015-08-29 13:34:00,
2015-08-29 06:39:00,59.7,51.4,29.74,South,180,2.2,2.2,74,0.00,,,0.00,LWC V2.10 B1500,2015-08-29 13:39:00,
2015-08-29 06:44:00,59.7,51.4,29.75,ESE,112,0.0,0.0,74,0.00,,,0.00,LWC V2.10 B1500,2015-08-29 13:44:00,
2015-08-29 06:49:00,59.5,51.3,29.75,ESE,112,0.0,0.0,74,0.00,,,0.00,LWC V2.10 B1500,2015-08-29 13:49:00,
2015-08-29 06:54:00,59.5,51.6,29.75,ESE,112,0.0,0.0,75,0.00,,,0.00,LWC V2.10 B1500,2015-08-29 13:54:00,
2015-08-29 06:59:00,59.5,51.6,29.76,SSW,202,0.0,3.4,74,0.00,,,0.00,LWC V2.10 B1500,2015-08-29 13:59:00,
2015-08-29 07:04:00,59.5,51.6,29.76,South,180,0.0,1.6,75,0.00,,,0.00,LWC V2.10 B1500,2015-08-29 14:04:00,
2015-08-29 07:09:00,59.5,51.3,29.76,South,180,0.0,2.0,74,0.00,,,0.00,LWC V2.10 B1500,2015-08-29 14:09:00,
2015-08-29 07:14:00,59.7,51.4,29.76,SSE,157,0.0,0.0,74,0.00,,,0.00,LWC V2.10 B1500,2015-08-29 14:14:00,
2015-08-29 07:19:00,59.7,51.4,29.77,SSW,202,0.0,0.0,74,0.00,,,0.00,LWC V2.10 B1500,2015-08-29 14:19:00,
2015-08-29 07:24:00,59.7,51.4,29.77,WSW,247,0.0,0.0,74,0.00,,,0.00,LWC V2.10 B1500,2015-08-29 14:24:00,
2015-08-29 07:29:00,59.9,51.6,29.76,SW,225,0.0,0.0,74,0.00,,,0.00,LWC V2.10 B1500,2015-08-29 14:29:00,
2015-08-29 07:34:00,60.4,52.5,29.77,WSW,247,0.0,0.0,75,0.00,,,0.00,LWC V2.10 B1500,2015-08-29 14:34:00,
2015-08-29 07:39:00,61.3,53.7,29.77,SE,135,4.0,7.6,76,0.00,,,0.00,LWC V2.10 B1500,2015-08-29 14:39:00,
2015-08-29 07:44:00,62.4,54.2,29.77,SW,225,0.0,2.5,75,0.00,,,0.00,LWC V2.10 B1500,2015-08-29 14:44:00,
2015-08-29 07:49:00,62.8,54.0,29.77,SE,135,4.0,4.0,73,0.00,,,0.00,LWC V2.10 B1500,2015-08-29 14:49:00,
2015-08-29 07:54:00,63.0,53.2,29.77,SE,135,0.0,4.5,71,0.00,,,0.00,LWC V2.10 B1500,2015-08-29 14:54:00,
2015-08-29 07:59:00,62.8,53.2,29.76,SSW,202,4.2,5.8,71,0.00,,,0.00,LWC V2.10 B1500,2015-08-29 14:59:00,
2015-08-29 08:04:00,62.6,52.3,29.77,SSW,202,5.8,6.3,69,0.00,,,0.00,LWC V2.10 B1500,2015-08-29 15:04:00,
2015-08-29 08:09:00,62.4,52.1,29.77,SE,135,5.8,7.4,69,0.00,,,0.00,LWC V2.10 B1500,2015-08-29 15:09:00,
2015-08-29 08:14:00,62.2,52.0,29.77,South,180,3.1,4.2,69,0.00,,,0.00,LWC V2.10 B1500,2015-08-29 15:14:00,
2015-08-29 08:19:00,61.9,51.6,29.77,WSW,247,0.0,7.8,69,0.00,,,0.00,LWC V2.10 B1500,2015-08-29 15:19:00,
2015-08-29 08:24:00,61.9,51.2,29.77,SSE,157,2.2,5.8,68,0.00,,,0.00,LWC V2.10 B1500,2015-08-29 15:24:00,
2015-08-29 08:29:00,61.7,51.5,29.77,SSW,202,0.0,4.2,69,0.00,,,0.00,LWC V2.10 B1500,2015-08-29 15:29:00,
2015-08-29 08:34:00,61.7,51.5,29.77,SW,225,4.5,4.5,69,0.00,,,0.00,LWC V2.10 B1500,2015-08-29 15:34:00,
2015-08-29 08:39:00,61.7,51.1,29.77,SSW,202,2.7,8.9,68,0.00,,,0.00,LWC V2.10 B1500,2015-08-29 15:39:00,
2015-08-29 08:44:00,61.9,51.2,29.77,ESE,112,0.0,7.6,68,0.00,,,0.00,LWC V2.10 B1500,2015-08-29 15:44:00,
2015-08-29 08:49:00,62.1,51.4,29.76,SE,135,0.0,5.6,68,0.00,,,0.00,LWC V2.10 B1500,2015-08-29 15:49:00,
2015-08-29 08:54:00,62.2,51.5,29.77,SSE,157,0.0,5.8,68,0.00,,,0.00,LWC V2.10 B1500,2015-08-29 15:54:00,
2015-08-29 08:59:00,62.4,51.3,29.76,SSE,157,9.8,9.8,67,0.00,,,0.00,LWC V2.10 B1500,2015-08-29 15:59:00,
2015-08-29 09:04:00,62.4,50.5,29.77,NW,315,0.0,6.0,65,0.00,,,0.00,LWC V2.10 B1500,2015-08-29 16:04:00,
2015-08-29 09:09:00,62.8,50.8,29.77,ESE,112,0.0,4.9,65,0.00,,,0.00,LWC V2.10 B1500,2015-08-29 16:09:00,
2015-08-29 09:14:00,62.8,50.4,29.77,SW,225,2.5,6.7,64,0.00,,,0.00,LWC V2.10 B1500,2015-08-29 16:14:00,
2015-08-29 09:19:00,63.1,50.7,29.77,SSE,157,3.1,6.0,64,0.00,,,0.00,LWC V2.10 B1500,2015-08-29 16:19:00,
2015-08-29 09:24:00,63.5,51.1,29.77,WSW,247,7.2,7.2,64,0.00,,,0.00,LWC V2.10 B1500,2015-08-29 16:24:00,
2015-08-29 09:34:00,64.6,52.1,29.77,ENE,67,1.8,13.0,64,0.00,,,0.00,LWC V2.10 B1500,2015-08-29 16:34:00,
2015-08-29 09:39:00,65.1,52.2,29.77,NW,315,1.6,6.5,63,0.00,,,0.00,LWC V2.10 B1500,2015-08-29 16:39:00,
2015-08-29 09:44:00,66.0,52.6,29.77,WSW,247,1.3,4.0,62,0.00,,,0.00,LWC V2.10 B1500,2015-08-29 16:44:00,
2015-08-29 09:49:00,66.6,52.7,29.77,South,180,2.9,2.9,61,0.00,,,0.00,LWC V2.10 B1500,2015-08-29 16:49:00,
2015-08-29 09:54:00,67.3,53.0,29.78,ESE,112,5.8,8.9,60,0.00,,,0.00,LWC V2.10 B1500,2015-08-29 16:54:00,
2015-08-29 09:59:00,67.6,52.8,29.78,SE,135,3.1,9.4,59,0.00,,,0.00,LWC V2.10 B1500,2015-08-29 16:59:00,
2015-08-29 10:04:00,67.8,52.0,29.78,SSE,157,5.1,7.2,57,0.00,,,0.00,LWC V2.10 B1500,2015-08-29 17:04:00,
2015-08-29 10:09:00,67.6,51.8,29.78,West,270,3.1,8.5,57,0.00,,,0.00,LWC V2.10 B1500,2015-08-29 17:09:00,
2015-08-29 10:14:00,67.8,52.0,29.78,SSE,157,1.8,5.8,57,0.00,,,0.00,LWC V2.10 B1500,2015-08-29 17:14:00,
2015-08-29 10:19:00,68.2,52.3,29.78,WSW,247,1.1,6.0,57,0.00,,,0.00,LWC V2.10 B1500,2015-08-29 17:19:00,
2015-08-29 10:24:00,68.7,51.9,29.78,West,270,3.4,11.2,55,0.00,,,0.00,LWC V2.10 B1500,2015-08-29 17:24:00,
2015-08-29 10:29:00,69.1,52.2,29.79,NE,45,2.9,11.2,55,0.00,,,0.00,LWC V2.10 B1500,2015-08-29 17:29:00,
2015-08-29 10:34:00,68.9,51.5,29.79,SSW,202,2.9,3.6,54,0.00,,,0.00,LWC V2.10 B1500,2015-08-29 17:34:00,
2015-08-29 10:39:00,68.7,51.3,29.79,WNW,292,2.7,5.6,54,0.00,,,0.00,LWC V2.10 B1500,2015-08-29 17:39:00,
2015-08-29 10:44:00,68.5,50.7,29.79,SSW,202,3.8,10.1,53,0.00,,,0.00,LWC V2.10 B1500,2015-08-29 17:44:00,
2015-08-29 10:49:00,68.5,50.7,29.79,SW,225,0.0,4.0,53,0.00,,,0.00,LWC V2.10 B1500,2015-08-29 17:49:00,
2015-08-29 10:54:00,68.5,50.2,29.79,West,270,2.7,3.1,52,0.00,,,0.00,LWC V2.10 B1500,2015-08-29 17:54:00,
2015-08-29 10:59:00,68.7,50.4,29.79,WNW,292,4.2,6.3,52,0.00,,,0.00,LWC V2.10 B1500,2015-08-29 17:59:00,
2015-08-29 11:04:00,69.1,51.2,29.80,East,90,6.3,8.9,53,0.00,,,0.00,LWC V2.10 B1500,2015-08-29 18:04:00,
2015-08-29 11:09:00,69.4,51.0,29.80,SSW,202,6.9,6.9,52,0.00,,,0.00,LWC V2.10 B1500,2015-08-29 18:09:00,
2015-08-29 11:14:00,69.4,50.5,29.79,WSW,247,0.0,4.9,51,0.00,,,0.00,LWC V2.10 B1500,2015-08-29 18:14:00,
2015-08-29 11:19:00,70.0,51.4,29.80,ESE,112,2.2,3.1,52,0.00,,,0.00,LWC V2.10 B1500,2015-08-29 18:19:00,
2015-08-29 11:24:00,70.7,52.2,29.80,SE,135,4.5,7.4,52,0.00,,,0.00,LWC V2.10 B1500,2015-08-29 18:24:00,
2015-08-29 11:29:00,71.6,52.1,29.80,SE,135,5.8,7.2,50,0.00,,,0.00,LWC V2.10 B1500,2015-08-29 18:29:00,
2015-08-29 11:34:00,72.3,52.6,29.80,NW,315,4.9,10.3,50,0.00,,,0.00,LWC V2.10 B1500,2015-08-29 18:34:00,
2015-08-29 11:39:00,72.7,52.4,29.80,SE,135,0.0,7.4,49,0.00,,,0.00,LWC V2.10 B1500,2015-08-29 18:39:00,
2015-08-29 11:44:00,73.2,52.2,29.80,South,180,1.1,4.9,48,0.00,,,0.00,LWC V2.10 B1500,2015-08-29 18:44:00,
2015-08-29 11:49:00,73.6,52.0,29.80,NW,315,3.6,9.4,47,0.00,,,0.00,LWC V2.10 B1500,2015-08-29 18:49:00,
2015-08-29 11:54:00,73.4,52.4,29.80,SW,225,4.0,10.5,48,0.00,,,0.00,LWC V2.10 B1500,2015-08-29 18:54:00,
2015-08-29 11:59:00,73.2,51.7,29.80,SE,135,1.6,6.9,47,0.00,,,0.00,LWC V2.10 B1500,2015-08-29 18:59:00,
2015-08-29 12:04:00,73.2,51.7,29.80,SW,225,2.5,11.0,47,0.00,,,0.00,LWC V2.10 B1500,2015-08-29 19:04:00,
2015-08-29 12:09:00,73.2,52.2,29.80,SSE,157,2.9,4.7,48,0.00,,,0.00,LWC V2.10 B1500,2015-08-29 19:09:00,
2015-08-29 12:14:00,73.2,51.1,29.79,SSE,157,0.0,9.8,46,0.00,,,0.00,LWC V2.10 B1500,2015-08-29 19:14:00,
2015-08-29 12:19:00,73.2,51.1,29.79,SE,135,2.7,7.4,46,0.00,,,0.00,LWC V2.10 B1500,2015-08-29 19:19:00,
2015-08-29 12:24:00,73.4,51.2,29.80,South,180,3.8,7.8,46,0.00,,,0.00,LWC V2.10 B1500,2015-08-29 19:24:00,
2015-08-29 12:29:00,73.6,51.4,29.80,South,180,1.6,7.8,46,0.00,,,0.00,LWC V2.10 B1500,2015-08-29 19:29:00,
2015-08-29 12:34:00,73.9,51.7,29.80,SSW,202,10.3,10.3,46,0.00,,,0.00,LWC V2.10 B1500,2015-08-29 19:34:00,
2015-08-29 12:39:00,74.5,52.2,29.80,SW,225,7.4,7.4,46,0.00,,,0.00,LWC V2.10 B1500,2015-08-29 19:39:00,
2015-08-29 12:44:00,75.4,52.5,29.80,WSW,247,0.2,5.1,45,0.00,,,0.00,LWC V2.10 B1500,2015-08-29 19:44:00,
2015-08-29 12:49:00,75.6,51.9,29.79,WNW,292,2.0,7.4,44,0.00,,,0.00,LWC V2.10 B1500,2015-08-29 19:49:00,
2015-08-29 12:54:00,75.0,51.5,29.80,NNW,337,1.8,5.6,44,0.00,,,0.00,LWC V2.10 B1500,2015-08-29 19:54:00,
2015-08-29 12:59:00,74.8,52.0,29.80,SW,225,4.7,6.0,45,0.00,,,0.00,LWC V2.10 B1500,2015-08-29 19:59:00,
2015-08-29 13:04:00,74.8,52.0,29.81,SSW,202,1.8,5.8,45,0.00,,,0.00,LWC V2.10 B1500,2015-08-29 20:04:00,
2015-08-29 13:09:00,74.8,52.0,29.80,WSW,247,3.6,4.9,45,0.00,,,0.00,LWC V2.10 B1500,2015-08-29 20:09:00,
2015-08-29 13:14:00,75.0,52.8,29.80,SW,225,3.6,4.0,46,0.00,,,0.00,LWC V2.10 B1500,2015-08-29 20:14:00,
2015-08-29 13:19:00,75.0,52.8,29.81,WSW,247,0.0,3.6,46,0.00,,,0.00,LWC V2.10 B1500,2015-08-29 20:19:00,
2015-08-29 13:24:00,75.0,52.8,29.81,SE,135,3.1,5.6,46,0.00,,,0.00,LWC V2.10 B1500,2015-08-29 20:24:00,
2015-08-29 13:29:00,75.0,52.8,29.81,WSW,247,0.0,3.8,46,0.00,,,0.00,LWC V2.10 B1500,2015-08-29 20:29:00,
2015-08-29 13:34:00,75.4,53.1,29.81,SE,135,0.0,5.1,46,0.00,,,0.00,LWC V2.10 B1500,2015-08-29 20:34:00,
2015-08-29 13:39:00,75.7,53.4,29.81,SW,225,4.0,4.7,46,0.00,,,0.00,LWC V2.10 B1500,2015-08-29 20:39:00,
2015-08-29 13:44:00,75.7,53.4,29.81,West,270,2.9,7.4,46,0.00,,,0.00,LWC V2.10 B1500,2015-08-29 20:44:00,
2015-08-29 13:49:00,75.7,53.4,29.81,SSW,202,1.3,8.9,46,0.00,,,0.00,LWC V2.10 B1500,2015-08-29 20:49:00,
2015-08-29 13:54:00,75.7,53.4,29.81,SSW,202,1.3,10.3,46,0.00,,,0.00,LWC V2.10 B1500,2015-08-29 20:54:00,
2015-08-29 13:59:00,75.4,52.5,29.81,West,270,2.2,2.5,45,0.00,,,0.00,LWC V2.10 B1500,2015-08-29 20:59:00,
2015-08-29 14:04:00,75.6,52.7,29.81,SSE,157,2.9,6.3,45,0.00,,,0.00,LWC V2.10 B1500,2015-08-29 21:04:00,
2015-08-29 14:09:00,75.7,52.8,29.81,SE,135,5.6,10.5,45,0.00,,,0.00,LWC V2.10 B1500,2015-08-29 21:09:00,
2015-08-29 14:14:00,75.6,52.8,29.81,SSE,157,4.2,5.8,45,0.00,,,0.00,LWC V2.10 B1500,2015-08-29 21:14:00,
2015-08-29 14:19:00,75.7,52.8,29.82,SSE,157,2.9,6.0,45,0.00,,,0.00,LWC V2.10 B1500,2015-08-29 21:19:00,
2015-08-29 14:24:00,75.9,53.0,29.82,West,270,5.8,8.5,45,0.00,,,0.00,LWC V2.10 B1500,2015-08-29 21:24:00,
2015-08-29 14:29:00,76.1,53.3,29.82,SSE,157,1.1,5.8,45,0.00,,,0.00,LWC V2.10 B1500,2015-08-29 21:29:00,
2015-08-29 14:34:00,76.3,53.3,29.82,SSW,202,2.7,6.5,45,0.00,,,0.00,LWC V2.10 B1500,2015-08-29 21:34:00,
2015-08-29 14:39:00,76.3,52.7,29.82,SW,225,8.5,8.5,44,0.00,,,0.00,LWC V2.10 B1500,2015-08-29 21:39:00,
2015-08-29 14:44:00,75.9,52.4,29.82,North,0,4.7,5.6,44,0.00,,,0.00,LWC V2.10 B1500,2015-08-29 21:44:00,
2015-08-29 14:49:00,76.1,53.2,29.82,WSW,247,1.8,5.4,45,0.00,,,0.00,LWC V2.10 B1500,2015-08-29 21:49:00,
2015-08-29 14:54:00,75.9,53.0,29.81,West,270,3.8,3.8,45,0.00,,,0.00,LWC V2.10 B1500,2015-08-29 21:54:00,
2015-08-29 14:59:00,75.7,52.8,29.82,South,180,2.9,6.9,45,0.00,,,0.00,LWC V2.10 B1500,2015-08-29 21:59:00,
2015-08-29 15:04:00,75.9,53.0,29.81,East,90,1.1,5.4,45,0.00,,,0.00,LWC V2.10 B1500,2015-08-29 22:04:00,
2015-08-29 15:09:00,75.9,53.0,29.81,WSW,247,2.7,2.9,45,0.00,,,0.00,LWC V2.10 B1500,2015-08-29 22:09:00,
2015-08-29 15:14:00,75.9,53.0,29.81,SE,135,3.6,3.6,45,0.00,,,0.00,LWC V2.10 B1500,2015-08-29 22:14:00,
2015-08-29 15:19:00,75.9,53.0,29.81,SE,135,3.1,10.5,45,0.00,,,0.00,LWC V2.10 B1500,2015-08-29 22:19:00,
2015-08-29 15:24:00,76.1,53.2,29.81,NNW,337,4.9,12.7,45,0.00,,,0.00,LWC V2.10 B1500,2015-08-29 22:24:00,
2015-08-29 15:29:00,75.7,52.2,29.81,SSE,157,6.3,6.3,44,0.00,,,0.00,LWC V2.10 B1500,2015-08-29 22:29:00,
2015-08-29 15:34:00,75.4,52.5,29.81,NNW,337,1.3,4.5,45,0.00,,,0.00,LWC V2.10 B1500,2015-08-29 22:34:00,
2015-08-29 15:39:00,75.4,52.5,29.81,ENE,67,5.8,7.2,45,0.00,,,0.00,LWC V2.10 B1500,2015-08-29 22:39:00,
2015-08-29 15:44:00,75.0,52.2,29.81,WSW,247,0.0,2.7,45,0.00,,,0.00,LWC V2.10 B1500,2015-08-29 22:44:00,
2015-08-29 15:49:00,74.8,52.6,29.81,SW,225,0.0,4.5,46,0.00,,,0.00,LWC V2.10 B1500,2015-08-29 22:49:00,
2015-08-29 15:54:00,74.5,52.2,29.81,ENE,67,2.2,3.4,46,0.00,,,0.00,LWC V2.10 B1500,2015-08-29 22:54:00,
2015-08-29 15:59:00,74.5,52.9,29.81,WSW,247,1.6,5.8,47,0.00,,,0.00,LWC V2.10 B1500,2015-08-29 22:59:00,
2015-08-29 16:04:00,74.1,52.5,29.81,SSE,157,0.0,4.9,47,0.00,,,0.00,LWC V2.10 B1500,2015-08-29 23:04:00,
2015-08-29 16:09:00,73.9,52.2,29.81,South,180,2.0,6.0,47,0.00,,,0.00,LWC V2.10 B1500,2015-08-29 23:09:00,
2015-08-29 16:14:00,73.6,52.6,29.81,WSW,247,1.6,6.5,48,0.00,,,0.00,LWC V2.10 B1500,2015-08-29 23:14:00,
2015-08-29 16:19:00,73.6,52.6,29.81,NE,45,0.0,2.7,48,0.00,,,0.00,LWC V2.10 B1500,2015-08-29 23:19:00,
2015-08-29 16:24:00,73.4,52.4,29.81,ESE,112,0.0,6.3,48,0.00,,,0.00,LWC V2.10 B1500,2015-08-29 23:24:00,
2015-08-29 16:29:00,73.2,52.2,29.81,WNW,292,5.1,7.2,48,0.00,,,0.00,LWC V2.10 B1500,2015-08-29 23:29:00,
2015-08-29 16:34:00,72.9,51.9,29.81,SSE,157,5.1,5.1,48,0.00,,,0.00,LWC V2.10 B1500,2015-08-29 23:34:00,
2015-08-29 16:39:00,72.5,51.6,29.81,ENE,67,0.0,5.6,48,0.00,,,0.00,LWC V2.10 B1500,2015-08-29 23:39:00,
2015-08-29 16:44:00,72.3,51.4,29.81,WSW,247,5.1,8.9,48,0.00,,,0.00,LWC V2.10 B1500,2015-08-29 23:44:00,
2015-08-29 16:49:00,72.3,52.0,29.81,West,270,2.2,6.9,49,0.00,,,0.00,LWC V2.10 B1500,2015-08-29 23:49:00,
2015-08-29 16:54:00,72.5,51.6,29.81,SW,225,0.0,7.6,48,0.00,,,0.00,LWC V2.10 B1500,2015-08-29 23:54:00,
2015-08-29 16:59:00,72.5,51.6,29.81,SSE,157,1.1,5.4,48,0.00,,,0.00,LWC V2.10 B1500,2015-08-29 23:59:00,
2015-08-29 17:04:00,72.7,51.8,29.81,ENE,67,2.2,4.0,48,0.00,,,0.00,LWC V2.10 B1500,2015-08-30 00:04:00,
2015-08-29 17:09:00,72.7,51.6,29.81,SW,225,4.5,5.8,48,0.00,,,0.00,LWC V2.10 B1500,2015-08-30 00:09:00,
2015-08-29 17:14:00,72.5,51.6,29.81,ESE,112,2.2,7.8,48,0.00,,,0.00,LWC V2.10 B1500,2015-08-30 00:14:00,
2015-08-29 17:19:00,72.3,52.0,29.81,WSW,247,1.6,8.5,49,0.00,,,0.00,LWC V2.10 B1500,2015-08-30 00:19:00,
2015-08-29 17:24:00,72.1,51.9,29.81,WSW,247,1.3,1.8,49,0.00,,,0.00,LWC V2.10 B1500,2015-08-30 00:24:00,
2015-08-29 17:29:00,72.0,51.7,29.81,WSW,247,2.9,5.4,49,0.00,,,0.00,LWC V2.10 B1500,2015-08-30 00:29:00,
2015-08-29 17:34:00,72.0,51.7,29.81,WSW,247,2.2,3.1,49,0.00,,,0.00,LWC V2.10 B1500,2015-08-30 00:34:00,
2015-08-29 17:39:00,71.8,51.5,29.81,WSW,247,2.2,6.0,49,0.00,,,0.00,LWC V2.10 B1500,2015-08-30 00:39:00,
2015-08-29 17:44:00,71.8,51.5,29.81,NW,315,1.6,6.5,49,0.00,,,0.00,LWC V2.10 B1500,2015-08-30 00:44:00,
2015-08-29 17:49:00,71.4,51.2,29.81,SE,135,3.6,8.1,49,0.00,,,0.00,LWC V2.10 B1500,2015-08-30 00:49:00,
2015-08-29 17:54:00,71.4,51.2,29.81,South,180,4.0,4.2,49,0.00,,,0.00,LWC V2.10 B1500,2015-08-30 00:54:00,
2015-08-29 17:59:00,71.2,51.1,29.81,West,270,1.6,3.1,49,0.00,,,0.00,LWC V2.10 B1500,2015-08-30 00:59:00,
2015-08-29 18:04:00,71.2,51.7,29.81,WSW,247,1.6,4.0,50,0.00,,,0.00,LWC V2.10 B1500,2015-08-30 01:04:00,
2015-08-29 18:09:00,70.9,51.3,29.82,South,180,0.0,4.7,50,0.00,,,0.00,LWC V2.10 B1500,2015-08-30 01:09:00,
2015-08-29 18:14:00,70.7,51.2,29.82,NNW,337,0.0,2.5,50,0.00,,,0.00,LWC V2.10 B1500,2015-08-30 01:14:00,
2015-08-29 18:19:00,70.3,51.3,29.82,SE,135,0.0,6.3,51,0.00,,,0.00,LWC V2.10 B1500,2015-08-30 01:19:00,
2015-08-29 18:24:00,70.2,51.2,29.82,SSW,202,0.0,11.4,51,0.00,,,0.00,LWC V2.10 B1500,2015-08-30 01:24:00,
2015-08-29 18:29:00,70.0,51.5,29.82,NW,315,0.0,6.5,52,0.00,,,0.00,LWC V2.10 B1500,2015-08-30 01:29:00,
2015-08-29 18:34:00,69.8,51.4,29.81,SSE,157,2.5,3.8,52,0.00,,,0.00,LWC V2.10 B1500,2015-08-30 01:34:00,
2015-08-29 18:39:00,69.8,51.4,29.82,WSW,247,0.0,6.0,52,0.00,,,0.00,LWC V2.10 B1500,2015-08-30 01:39:00,
2015-08-29 18:44:00,69.6,51.7,29.82,SSE,157,0.0,4.5,53,0.00,,,0.00,LWC V2.10 B1500,2015-08-30 01:44:00,
2015-08-29 18:49:00,69.4,51.5,29.82,SSE,157,6.9,9.2,53,0.00,,,0.00,LWC V2.10 B1500,2015-08-30 01:49:00,
2015-08-29 18:54:00,69.1,51.2,29.82,SSW,202,4.2,4.2,53,0.00,,,0.00,LWC V2.10 B1500,2015-08-30 01:54:00,
2015-08-29 18:59:00,68.7,51.3,29.82,WSW,247,1.6,2.0,54,0.00,,,0.00,LWC V2.10 B1500,2015-08-30 01:59:00,
2015-08-29 19:04:00,68.5,51.2,29.82,NE,45,0.0,5.4,54,0.00,,,0.00,LWC V2.10 B1500,2015-08-30 02:04:00,
2015-08-29 19:09:00,68.2,50.8,29.83,South,180,1.6,7.4,54,0.00,,,0.00,LWC V2.10 B1500,2015-08-30 02:09:00,
2015-08-29 19:14:00,67.8,51.0,29.83,NW,315,5.4,5.4,55,0.00,,,0.00,LWC V2.10 B1500,2015-08-30 02:14:00,
2015-08-29 19:19:00,67.8,51.0,29.83,ENE,67,0.0,1.6,55,0.00,,,0.00,LWC V2.10 B1500,2015-08-30 02:19:00,
2015-08-29 19:24:00,67.6,50.8,29.83,WSW,247,0.0,3.6,55,0.00,,,0.00,LWC V2.10 B1500,2015-08-30 02:24:00,
2015-08-29 19:29:00,67.3,50.5,29.83,South,180,2.0,5.6,55,0.00,,,0.00,LWC V2.10 B1500,2015-08-30 02:29:00,
2015-08-29 19:34:00,67.1,50.8,29.83,SSE,157,0.0,6.9,56,0.00,,,0.00,LWC V2.10 B1500,2015-08-30 02:34:00,
2015-08-29 19:39:00,66.9,50.7,29.83,SE,135,0.0,3.4,56,0.00,,,0.00,LWC V2.10 B1500,2015-08-30 02:39:00,
2015-08-29 19:44:00,66.7,50.5,29.83,SE,135,6.9,7.2,56,0.00,,,0.00,LWC V2.10 B1500,2015-08-30 02:44:00,
2015-08-29 19:49:00,66.6,50.4,29.83,SSW,202,3.1,8.7,56,0.00,,,0.00,LWC V2.10 B1500,2015-08-30 02:49:00,
2015-08-29 19:54:00,66.2,50.5,29.83,ENE,67,2.2,5.8,57,0.00,,,0.00,LWC V2.10 B1500,2015-08-30 02:54:00,
2015-08-29 19:59:00,66.0,50.3,29.83,West,270,0.0,1.6,57,0.00,,,0.00,LWC V2.10 B1500,2015-08-30 02:59:00,
2015-08-29 20:04:00,65.8,50.2,29.83,South,180,2.5,2.7,57,0.00,,,0.00,LWC V2.10 B1500,2015-08-30 03:04:00,
2015-08-29 20:09:00,65.5,50.3,29.83,SSE,157,0.0,3.4,58,0.00,,,0.00,LWC V2.10 B1500,2015-08-30 03:09:00,
2015-08-29 20:19:00,65.3,50.1,29.83,South,180,4.2,4.2,58,0.00,,,0.00,LWC V2.10 B1500,2015-08-30 03:19:00,
2015-08-29 20:25:00,65.1,50.4,29.84,NW,315,1.8,2.5,59,0.00,,,0.00,LWC V2.10 B1500,2015-08-30 03:25:00,
2015-08-29 20:30:00,64.9,50.2,29.83,SSW,202,2.0,4.9,59,0.00,,,0.00,LWC V2.10 B1500,2015-08-30 03:30:00,
2015-08-29 20:35:00,64.9,50.2,29.83,SSE,157,0.0,5.1,59,0.00,,,0.00,LWC V2.10 B1500,2015-08-30 03:35:00,
2015-08-29 20:40:00,64.9,50.2,29.83,WSW,247,0.0,3.1,59,0.00,,,0.00,LWC V2.10 B1500,2015-08-30 03:40:00,
2015-08-29 20:45:00,64.9,50.7,29.83,WSW,247,2.0,6.7,60,0.00,,,0.00,LWC V2.10 B1500,2015-08-30 03:45:00,
2015-08-29 20:50:00,64.9,50.7,29.83,West,270,0.0,2.7,60,0.00,,,0.00,LWC V2.10 B1500,2015-08-30 03:50:00,
2015-08-29 20:55:00,64.9,50.7,29.83,West,270,0.0,10.7,60,0.00,,,0.00,LWC V2.10 B1500,2015-08-30 03:55:00,
2015-08-29 21:00:00,64.9,51.1,29.84,SSE,157,3.1,4.7,61,0.00,,,0.00,LWC V2.10 B1500,2015-08-30 04:00:00,
2015-08-29 21:05:00,64.8,51.0,29.83,West,270,3.6,4.7,61,0.00,,,0.00,LWC V2.10 B1500,2015-08-30 04:05:00,
2015-08-29 21:10:00,64.6,51.2,29.84,WSW,247,1.8,5.4,62,0.00,,,0.00,LWC V2.10 B1500,2015-08-30 04:10:00,
2015-08-29 21:15:00,64.6,51.2,29.84,SW,225,3.4,5.4,62,0.00,,,0.00,LWC V2.10 B1500,2015-08-30 04:15:00,
2015-08-29 21:20:00,64.6,51.2,29.84,SSE,157,0.0,3.8,62,0.00,,,0.00,LWC V2.10 B1500,2015-08-30 04:20:00,
2015-08-29 21:25:00,64.2,50.9,29.84,West,270,4.0,6.3,62,0.00,,,0.00,LWC V2.10 B1500,2015-08-30 04:25:00,
2015-08-29 21:30:00,64.2,51.3,29.84,NW,315,0.0,4.7,63,0.00,,,0.00,LWC V2.10 B1500,2015-08-30 04:30:00,
2015-08-29 21:35:00,64.0,51.1,29.84,WNW,292,0.0,6.5,63,0.00,,,0.00,LWC V2.10 B1500,2015-08-30 04:35:00,
2015-08-29 21:40:00,64.0,51.6,29.85,South,180,0.0,4.7,64,0.00,,,0.00,LWC V2.10 B1500,2015-08-30 04:40:00,
2015-08-29 21:45:00,64.0,51.6,29.85,SSE,157,0.9,5.1,64,0.00,,,0.00,LWC V2.10 B1500,2015-08-30 04:45:00,
2015-08-29 21:50:00,64.0,51.6,29.85,SSW,202,2.0,5.1,64,0.00,,,0.00,LWC V2.10 B1500,2015-08-30 04:50:00,
2015-08-29 21:55:00,64.0,52.0,29.84,WNW,292,6.3,8.7,65,0.00,,,0.00,LWC V2.10 B1500,2015-08-30 04:55:00,
2015-08-29 22:00:00,63.9,51.8,29.85,West,270,0.0,7.4,65,0.00,,,0.00,LWC V2.10 B1500,2015-08-30 05:00:00,
2015-08-29 22:05:00,63.7,51.7,29.85,SSE,157,1.1,4.2,65,0.00,,,0.00,LWC V2.10 B1500,2015-08-30 05:05:00,
2015-08-29 22:10:00,63.7,51.7,29.85,SW,225,1.6,5.4,65,0.00,,,0.00,LWC V2.10 B1500,2015-08-30 05:10:00,
2015-08-29 22:15:00,63.7,52.1,29.85,SSW,202,0.0,4.0,66,0.00,,,0.00,LWC V2.10 B1500,2015-08-30 05:15:00,
2015-08-29 22:20:00,63.5,51.9,29.85,SSW,202,2.0,3.8,66,0.00,,,0.00,LWC V2.10 B1500,2015-08-30 05:20:00,
2015-08-29 22:25:00,63.3,52.1,29.85,SSE,157,1.8,2.5,67,0.00,,,0.00,LWC V2.10 B1500,2015-08-30 05:25:00,
2015-08-29 22:30:00,63.3,52.1,29.85,SW,225,2.7,5.6,67,0.00,,,0.00,LWC V2.10 B1500,2015-08-30 05:30:00,
2015-08-29 22:35:00,63.1,52.8,29.85,SSE,157,0.0,6.5,69,0.00,,,0.00,LWC V2.10 B1500,2015-08-30 05:35:00,
2015-08-29 22:40:00,62.8,52.4,29.86,South,180,0.0,0.9,69,0.00,,,0.00,LWC V2.10 B1500,2015-08-30 05:40:00,
2015-08-29 22:45:00,62.6,52.4,29.85,South,180,4.5,4.5,69,0.00,,,0.00,LWC V2.10 B1500,2015-08-30 05:45:00,
2015-08-29 22:50:00,62.4,52.1,29.85,WSW,247,0.0,2.9,69,0.00,,,0.00,LWC V2.10 B1500,2015-08-30 05:50:00,
2015-08-29 22:55:00,62.4,52.1,29.85,WSW,247,2.5,2.5,69,0.00,,,0.00,LWC V2.10 B1500,2015-08-30 05:55:00,
2015-08-29 23:00:00,62.4,52.1,29.85,SSE,157,0.0,0.0,69,0.00,,,0.00,LWC V2.10 B1500,2015-08-30 06:00:00,
2015-08-29 23:05:00,62.4,52.1,29.85,SSE,157,0.0,0.0,69,0.00,,,0.00,LWC V2.10 B1500,2015-08-30 06:05:00,
2015-08-29 23:10:00,62.2,52.0,29.84,SSE,157,0.0,0.0,69,0.00,,,0.00,LWC V2.10 B1500,2015-08-30 06:10:00,
2015-08-29 23:15:00,62.2,52.0,29.85,SSE,157,0.0,0.0,69,0.00,,,0.00,LWC V2.10 B1500,2015-08-30 06:15:00,
2015-08-29 23:20:00,62.2,52.0,29.85,SSE,157,0.0,0.0,69,0.00,,,0.00,LWC V2.10 B1500,2015-08-30 06:20:00,
2015-08-29 23:25:00,62.2,52.4,29.84,SSE,157,0.0,0.0,70,0.00,,,0.00,LWC V2.10 B1500,2015-08-30 06:25:00,